This is the latest recevied weather packets stored in our database for station/object OE3CJB-13. If no packets are shown the sender has not sent any weather packets the latest 10 day(s).
| Time | Temp. | Humidity | Pressure | Rain* | Wind** | Luminosity | Snow |
|---|---|---|---|---|---|---|---|
| 1777591865 | 3.33° C | 38% | 760.6 hPa | 0 mm | - | - | - |
| 1777590949 | 3.89° C | 38% | 761.4 hPa | 0 mm | - | - | - |
| 1777590039 | 3.89° C | 37% | 765.3 hPa | 0 mm | - | - | - |
| 1777589124 | 4.44° C | 36% | 766.9 hPa | 0 mm | - | - | - |
| 1777588308 | 4.44° C | 35% | 767.7 hPa | 0 mm | - | - | - |
| 1777587348 | 4.44° C | 35% | 767.6 hPa | 0 mm | - | - | - |
| 1777586439 | 4.44° C | 34% | 767.6 hPa | 0 mm | - | - | - |
| 1777585524 | 5° C | 32% | 768.4 hPa | 0 mm | - | - | - |
| 1777584664 | 5.56° C | 30% | 769.2 hPa | 0 mm | - | - | - |
| 1777583748 | 5.56° C | 29% | 768.3 hPa | 0 mm | - | - | - |
| 1777582838 | 6.11° C | 27% | 768.2 hPa | 0 mm | - | - | - |
| 1777581924 | 6.11° C | 26% | 768.3 hPa | 0 mm | - | - | - |
| 1777581064 | 6.67° C | 26% | 767.4 hPa | 0 mm | - | - | - |
| 1777580149 | 6.67° C | 26% | 769 hPa | 0 mm | - | - | - |
| 1777579253 | 7.22° C | 24% | 768.1 hPa | 0 mm | - | - | - |
| 1777578324 | 7.78° C | 22% | 768.1 hPa | 0 mm | - | - | - |
| 1777577465 | 8.33° C | 20% | 768.1 hPa | 0 mm | - | - | - |
| 1777576596 | 8.33° C | 18% | 768.1 hPa | 0 mm | - | - | - |
| 1777575639 | 8.89° C | 14% | 768.8 hPa | 0 mm | - | - | - |
| 1777574724 | 10° C | 12% | 768 hPa | 0 mm | - | - | - |
| 1777573865 | 10.56° C | - | 767.9 hPa | 0 mm | - | - | - |
| 1777572948 | 11.67° C | - | 767.8 hPa | 0 mm | - | - | - |
| 1777572087 | 12.22° C | - | 767.9 hPa | 0 mm | - | - | - |
| 1777571125 | 12.78° C | - | 767.8 hPa | 0 mm | - | - | - |
| 1777570265 | 13.33° C | - | 767.8 hPa | 0 mm | - | - | - |
* Rain latest hour (hover to see other rain measurements)
** Current wind speed in m/s (hover to see current wind gust speed)